Location: �perlecques
(50.8057°N, 2.1521°E)
Time: 03:56:17
(UTC+00:00)

BlueWalker 3 - Visible Passes

Search period start: 30 November 2022 00:00
Search period end: 10 December 2022 00:00
Orbit: 500 x 519 km, 53.2° (Epoch: 29 November)

Date Brightness Start Highest point End Pass type
(mag) Time Alt. Az. Time Alt. Az. Time Alt. Az.
30 Nov 2.0 16:34:43 10° WSW 16:38:39 77° SSE 16:42:28 10° ENE visible
30 Nov 2.2 18:13:35 10° W 18:17:18 59° NNW 18:17:18 59° NNW visible
01 Dec 2.1 17:55:14 10° W 17:59:06 59° N 17:59:38 53° NE visible
01 Dec 5.2 19:34:04 10° WNW 19:34:27 12° WNW 19:34:27 12° WNW visible
02 Dec 2.1 17:36:51 10° W 17:40:44 59° N 17:41:58 38° ENE visible
02 Dec 4.7 19:15:42 10° WNW 19:16:48 18° WNW 19:16:48 18° WNW visible
03 Dec 2.1 17:18:29 10° W 17:22:21 59° N 17:24:20 26° ENE visible
03 Dec 4.0 18:57:19 10° WNW 18:59:09 26° WNW 18:59:09 26° WNW visible
04 Dec 2.1 17:00:06 10° W 17:03:59 59° N 17:06:43 18° ENE visible
04 Dec 3.2 18:38:55 10° WNW 18:41:33 41° WNW 18:41:33 41° WNW visible
05 Dec 2.1 16:41:42 10° W 16:45:36 59° N 16:49:09 12° E visible
05 Dec 2.2 18:20:31 10° WNW 18:23:59 68° W 18:23:59 68° W visible
06 Dec 2.1 16:23:18 10° W 16:27:12 59° N 16:31:04 10° E visible
06 Dec 1.9 18:02:07 10° WNW 18:06:02 82° SSW 18:06:29 68° SE visible
06 Dec 5.4 19:41:13 10° W 19:41:19 11° W 19:41:19 11° W visible
07 Dec 2.0 17:43:42 10° WNW 17:47:37 79° SSW 17:49:05 37° ESE visible
07 Dec 4.9 19:22:51 10° W 19:23:56 15° W 19:23:56 15° W visible
08 Dec 2.0 17:25:17 10° WNW 17:29:13 76° SSW 17:31:48 20° ESE visible
08 Dec 4.4 19:04:29 10° W 19:06:40 19° WSW 19:06:40 19° WSW visible
09 Dec 2.1 17:06:52 10° WNW 17:10:47 74° SSW 17:14:39 10° ESE visible
09 Dec 4.2 18:46:07 10° W 18:48:58 20° SW 18:49:34 19° SSW visible
